Butte, MT

8:58 AM MDT on August 21, 2017 (GMT -0600)
Mooney

Weather History for KBTM - October, 2010

Change the Weather History Date:

Friday, October 1, 2010

  Actual Average Record
Temperature  
Mean Temperature 55 °F 46 °F  
Max Temperature 74 °F 61 °F 83 °F (1992)
Min Temperature 36 °F 31 °F 12 °F (1950)
Degree Days  
Heating Degree Days 10 19  
Month to date heating degree days 10 19  
Since 1 July heating degree days 694 640  
Cooling Degree Days 0 0  
Month to date cooling degree days 0 0  
Year to date cooling degree days 27 81  
Growing Degree Days 5 (Base 50)    
Moisture  
Dew Point 39 °F    
Average Humidity 61    
Maximum Humidity 92    
Minimum Humidity 29    
Precipitation  
Precipitation 0.00 in 0.03 in 0.75 in (1900)
Month to date precipitation 0.00 0.03  
Year to date precipitation 13.58 10.91  
Sea Level Pressure  
Sea Level Pressure 30.20 in    
Wind  
Wind Speed 6 mph (SSE)    
Max Wind Speed 16 mph    
Max Gust Speed 18 mph    
Visibility 10 miles    
Events      
T = Trace of Precipitation, MM = Missing Value Source: NWS Daily Summary

Daily Weather History Graph

Daily Weather History Graph

Search for Another Location

Airport or City:

Trip Planner

Search our weather history database for the weather conditions in past years. The results will help you decide how hot, cold, wet, or windy it might be!

Date:

Astronomy

Oct. 01, 2010 Rise Set
Actual Time 7:28 AM MDT 7:09 PM MDT
Civil Twilight 6:58 AM MDT 7:39 PM MDT
Nautical Twilight 6:24 AM MDT 8:14 PM MDT
Astronomical Twilight 5:48 AM MDT 8:49 PM MDT
Moon No Moon Rise 3:39 PM MDT (10/1)
Length of Visible Light 12h 40m
Length of Day
11h 41m
Last Quarter, 43% of the Moon is Illuminated
Oct 1
Last Quarter
Oct 7
New
Oct 14
First Quarter
Oct 22
Full
Oct 30
Last Quarter

Hourly Weather History & Observations

Time (MDT) Temp. Windchill Dew Point Humidity Pressure Visibility Wind Dir Wind Speed Gust Speed Precip Events Conditions
12:53 AM 44.1 °F - 37.0 °F 76% 30.18 in 10.0 mi Calm Calm - N/A   Clear
1:53 AM 42.1 °F - 36.0 °F 79% 30.18 in 10.0 mi Calm Calm - N/A   Unknown
2:53 AM 41.0 °F - 37.0 °F 86% 30.18 in 10.0 mi Calm Calm - N/A   Clear
3:53 AM 39.9 °F 37.8 °F 36.0 °F 86% 30.18 in 10.0 mi SE 3.5 mph - N/A   Clear
4:53 AM 39.0 °F 36.8 °F 35.1 °F 86% 30.20 in 10.0 mi South 3.5 mph - N/A   Clear
5:53 AM 37.0 °F 32.4 °F 35.1 °F 93% 30.21 in 10.0 mi ESE 5.8 mph - N/A   Clear
6:53 AM 37.0 °F - 34.0 °F 89% 30.23 in 10.0 mi Calm Calm - N/A   Clear
7:53 AM 37.0 °F - 33.1 °F 86% 30.26 in 10.0 mi Calm Calm - N/A   Clear
8:53 AM 42.1 °F 40.2 °F 36.0 °F 79% 30.27 in 10.0 mi NW 3.5 mph - N/A   Clear
9:53 AM 51.1 °F - 39.9 °F 66% 30.26 in 10.0 mi Calm Calm - N/A   Clear
10:53 AM 60.1 °F - 41.0 °F 49% 30.23 in 10.0 mi NNW 3.5 mph - N/A   Clear
11:53 AM 64.9 °F - 39.9 °F 40% 30.22 in 10.0 mi NNW 3.5 mph - N/A   Clear
12:53 PM 66.9 °F - 39.9 °F 37% 30.21 in 10.0 mi SSE 8.1 mph - N/A   Clear
1:53 PM 70.0 °F - 41.0 °F 35% 30.19 in 10.0 mi South 12.7 mph 16.1 mph N/A   Clear
2:53 PM 72.0 °F - 41.0 °F 33% 30.16 in 10.0 mi SSE 9.2 mph - N/A   Clear
3:53 PM 73.0 °F - 41.0 °F 31% 30.15 in 10.0 mi South 12.7 mph - N/A   Clear
4:53 PM 73.0 °F - 39.9 °F 30% 30.16 in 10.0 mi South 12.7 mph - N/A   Clear
5:53 PM 72.0 °F - 41.0 °F 33% 30.16 in 10.0 mi SSE 12.7 mph - N/A   Clear
6:53 PM 66.0 °F - 39.9 °F 38% 30.17 in 10.0 mi South 15.0 mph - N/A   Clear
7:53 PM 62.1 °F - 41.0 °F 46% 30.20 in 10.0 mi Calm Calm - N/A   Clear
8:53 PM 57.9 °F - 42.1 °F 56% 30.21 in 10.0 mi SE 6.9 mph - N/A   Clear
9:53 PM 55.0 °F - 41.0 °F 59% 30.19 in 10.0 mi South 8.1 mph - N/A   Clear
10:53 PM 54.0 °F - 41.0 °F 62% 30.17 in 10.0 mi South 4.6 mph - N/A   Clear
11:53 PM 48.0 °F - 39.9 °F 74% 30.16 in 10.0 mi South 5.8 mph - N/A   Clear